Regional Weather Roundup
Issued by NWS

Home | Current Version | Previous Version | Text Only | Print | Product List | Glossary Off
Versions: 1 2 3 4 5 6 7 8 9 10 11 12 13 14 15 16 17 18 19 20 21 22 23 24 25 26 27 28 29 30 31 32 33 34 35 36 37 38 39 40 41 42 43 44 45 46 47 48 49 50

000
ASUS43 KMPX 250001
RWRMN
WEATHER ROUNDUP FOR MINNESOTA
NATIONAL WEATHER SERVICE TWIN CITIES/CHANHASSEN MN
700 PM CDT WED AUG 24 2016


NOTE: "FAIR" INDICATES FEW OR NO CLOUDS BELOW 12,000 FEET WITH NO
SIGNIFICANT WEATHER AND/OR OBSTRUCTIONS TO VISIBILITY. N/A MEANS
CURRENT SKY AND/OR WEATHER CONDITIONS ARE NOT AVAILABLE.

MNZ060>063-068>070-250100-
   Twin Cities Metro

CITY           SKY/WX    TMP DP  RH WIND       PRES   REMARKS
TWIN CITIES    CLOUDY    74  58  57 W10       29.96S
6HR MIN TEMP:  74; 6HR MAX TEMP:  82;

ST PAUL        PTSUNNY   74  57  55 W12       29.96R
CRYSTAL        MOSUNNY   73  57  57 W9        29.95S
LAKEVILLE      CLOUDY    70  57  64 W7        29.97S
EDEN PRAIRIE   CLOUDY    74  56  53 W8        29.96S
6HR MIN TEMP:  74; 6HR MAX TEMP:  82;

LAKEVILLE      CLOUDY    70  57  64 W7        29.97S
SOUTH ST PAUL  CLOUDY    74  56  53 W8        29.96R
LAKE ELMO      FAIR      72  59  64 W7        29.97S
$$
MNZ001>005-007-008-013>017-022>024-027-028-250100-
   Northwest Minnesota

CITY           SKY/WX    TMP DP  RH WIND       PRES   REMARKS
BEMIDJI        CLOUDY    68  53  59 SW8       29.93R
HALLOCK        CLOUDY    70  52  52 W12       29.85S
ROSEAU         MOSUNNY   72  55  56 W8G16     29.85S
WARROAD        MOSUNNY   70  55  60 W10G17    29.86R
THIEF RVR FALL MOSUNNY   71  51  49 W14       29.90S
CROOKSTON      SUNNY     72  52  49 W14       29.90S
FOSSTON        PTSUNNY   70  52  52 W12       29.93R
DETROIT LAKES  MOSUNNY   70  54  56 W8        29.97S
MOORHEAD       SUNNY     73  52  46 W16       29.95S
PARK RAPIDS    MOSUNNY   70  53  54 W10       29.95R
MAHNOMEN       MOCLDY    71  52  51 W14G21    29.94R
$$
MNZ006-009>011-018-025>026-250100-
   North Central Minnesota

CITY           SKY/WX    TMP DP  RH WIND       PRES   REMARKS
BAUDETTE       MOSUNNY   70  52  52 W8        29.86R
FLAG ISLAND    PTSUNNY   72  54  53 W8        29.81S HAZE
INTL FALLS     PTSUNNY   71  53  52 W12       29.85R
6HR MIN TEMP:  71; 6HR MAX TEMP:  79;

WASKISH        PTSUNNY   70  55  60 W13       29.89R
BIG FORK       MOSUNNY   72  55  56 W3        29.90R
LONGVILLE      MOSUNNY   70  55  60 W6        29.93S
GRAND RAPIDS   PTSUNNY   71  55  56 W9        29.93S
CRANE LAKE     CLOUDY    73  54  49 W8        29.87R
ORR            MOSUNNY   72  52  49 W7        29.86R
COOK           MOSUNNY   72  55  56 W7        29.89R
WALKER         MOCLDY    68  54  60 W9G18     29.93S
$$
MNZ012-019>021-037-250100-
   Northeast Minnesota

CITY           SKY/WX    TMP DP  RH WIND       PRES   REMARKS
DULUTH         CLOUDY    74  57  55 W10       29.88S
6HR MIN TEMP:  74; 6HR MAX TEMP:  82;

ELY            PTCLDY    73  52  46 W9        29.86R
HIBBING        PTSUNNY   70  52  52 W10G18    29.89R
EVELETH        MOCLDY    73  51  46 W10       29.90R
DULUTH HARBOR  CLOUDY    79  59  50 W16       29.86S
TWO HARBORS    PTCLDY    75  61  60 CALM      29.84S
SILVER BAY     PTCLDY    73  59  60 CALM      29.83R
G MARAIS ARPRT CLOUDY    70  54  56 W7        29.85R
$$
MNZ029>031-032-039>041-046>048-054>057-064-250100-
   West Central Minnesota

CITY           SKY/WX    TMP DP  RH WIND       PRES   REMARKS
FERGUS FALLS   SUNNY     72  54  53 W12       29.98S
WHEATON        PTSUNNY   75  57  53 W7        30.00S
MORRIS         PTSUNNY   72  59  64 W7        29.98F
ALEXANDRIA     MOSUNNY   71  55  56 W9        29.99F
ELBOW LAKE     FAIR      70  56  61 NW9       29.98F
WADENA         SUNNY     70  55  60 W8G22     29.95F
GLENWOOD       MOSUNNY   70  57  64 W10       29.99S
APPLETON       MOSUNNY   73  55  53 NW9       29.98S
BENSON         CLOUDY    73  54  49 NW7       29.99S
ORTONVILLE     CLOUDY    72  55  56 NW9       29.99F
MADISON        CLOUDY    72  57  60 NW5       30.00R
WILLMAR        FAIR      72  61  68 W5        30.01R
$$
MNZ033>034-036-042>043-049>051-058-059-250100-
   Central Minnesota

CITY           SKY/WX    TMP DP  RH WIND       PRES   REMARKS
ST CLOUD       CLOUDY    71  58  63 W10       29.97R
6HR MIN TEMP:  71; 6HR MAX TEMP:  80;

SAUK CENTRE    FAIR      69  55  60 W9        29.98R
PAYNESVILLE    CLOUDY    69  58  67 W6        29.99S
AITKIN         CLOUDY    73  52  46 W6        29.91F
PINE RIVER     SUNNY     72  55  56 W6        29.97S
BRAINERD       SUNNY     72  53  51 W13       29.94S
STAPLES        SUNNY     70  52  52 W14G20    29.96R
LONG PRAIRIE   FAIR      70  54  56 SW10      29.97F
LITTLE FALLS   CLOUDY    72  52  49 W8G16     29.96R
LITCHFIELD     CLOUDY    72  61  68 W3        30.00S
BUFFALO        CLOUDY    71  57  61 W5        29.99S
MAPLE LAKE     CLOUDY    72  60  67 W5        29.99S
HUTCHINSON     SUNNY     70  62  77 W5        30.00S
$$
MNZ037-044-045-052-053-250100-
   East Central Minnesota

CITY           SKY/WX    TMP DP  RH WIND       PRES   REMARKS
PRINCETON      CLOUDY    72  57  60 SW5       29.97R
MORA           CLOUDY    70  57  64 SW6       29.96R
CAMBRIDGE      CLOUDY    73  57  56 SW5       29.95R
RUSH CITY      CLOUDY    71  58  64 SW6       29.95R
MOOSE LAKE     CLOUDY    72  55  56 W8        29.89R
HINCKLEY       FAIR      72  59  64 W6        29.93R
CLOQUET        CLOUDY    73  54  49 W8        29.89F
MCGREGOR       CLOUDY    72  54  53 W12G18    29.92S
$$
MNZ071>073-080-081-089-090-097-098-250100-
   Southwest Minnesota

CITY           SKY/WX    TMP DP  RH WIND       PRES   REMARKS
MONTEVIDEO     CLOUDY    72  59  64 NW5       30.01F
GRANITE FALLS  CLOUDY    72  63  73 CALM      30.02S
CANBY          CLOUDY    72  60  66 NW6       30.02R
MARSHALL       CLOUDY    69  60  73 W7        30.02S
REDWOOD FALLS  CLOUDY    72  60  66 W6        30.00S
OLIVIA         CLOUDY    70  57  64 NW5       29.99F
PIPESTONE      CLOUDY    70  61  73 W1        30.05F
WINDOM         CLOUDY    70  61  73 W3        30.03S
WORTHINGTON    CLOUDY    67  60  78 W6        30.06R
JACKSON        CLOUDY    68  59  73 NW5       30.04F
TRACY          CLOUDY    70  63  78 W5        30.03S
$$
MNZ065>067-074>077-082>085-091>093-250100-
   South Central Minnesota

CITY           SKY/WX    TMP DP  RH WIND       PRES   REMARKS
MANKATO        CLOUDY    72  59  64 W6        30.00R
NEW ULM          N/A     72  64  78 CALM      30.00S
ST JAMES       CLOUDY    66  55  68 W3        30.02S
FAIRMONT       CLOUDY    71  61  70 NW5       30.02F
GLENCOE        CLOUDY    71  62  71 W7        29.98F
FARIBAULT      CLOUDY    72  61  68 W6        29.99S
OWATONNA       CLOUDY    72  63  73 W5        30.00R
WASECA         CLOUDY    70  63  78 W5        30.02R
ALBERT LEA     PTSUNNY   72  61  68 NW3       30.00F
$$
MNZ078>079-086>088-094>096-250100-
   Southeast Minnesota

CITY           SKY/WX    TMP DP  RH WIND       PRES   REMARKS
ROCHESTER      MOCLDY    72  64  76 W8        29.99S
6HR MIN TEMP:  72; 6HR MAX TEMP:  80;

RED WING       PTCLDY    75  61  60 NW5       29.94R
STANTON        PTCLDY    73  59  60 W9        29.96S
DODGE CENTER   MOCLDY    72  63  73 W8        30.00R
WINONA         PTCLDY    77  63  61 W3        29.95R
AUSTIN         PTCLDY    73  61  64 NW9       29.99S
PRESTON        PTCLDY    71  61  70 NW7       29.99S
$$
ABBREVIATIONS USED IN REMARKS
   TC - TEMPERATURES IN CELSIUS
  WCI - WIND CHILL INDEX
   HX - HEAT INDEX
  VSB - VISIBILITY
$$



USA.gov is the U.S. government's official web portal to all federal, state and local government web resources and services.